UAL255 KBOI-KDEN

Flight info

Callsign UAL255
Flight time 1h 22m
Altitude 39000
Route ROARR AMFAL MJANE FLATI5
Aircraft B38M/M-SDE1FGHILORVWXY/HB1

Departure

Time 2026-05-09 04:04
Airport Boise Air Terminal/Gowen Field (KBOI)

Arrival

Time 2026-05-09 05:26
Airport Denver International Airport (KDEN)
Time Latitude Longitude Altitude Speed Heading
2026-05-09 03:30 43.56767 -116.21915 2861 ft 0 kts 197°
2026-05-09 03:54 43.56768 -116.21915 2861 ft 1 kts 198°
2026-05-09 03:54 43.56790 -116.21907 2861 ft 4 kts 188°
2026-05-09 03:54 43.56813 -116.21909 2857 ft 4 kts 141°
2026-05-09 03:54 43.56819 -116.21924 2856 ft 1 kts 97°
2026-05-09 03:55 43.56820 -116.21928 2860 ft 0 kts 97°
2026-05-09 03:58 43.56819 -116.21925 2860 ft 1 kts 97°
2026-05-09 03:58 43.56818 -116.21912 2860 ft 2 kts 97°
2026-05-09 03:58 43.56815 -116.21872 2857 ft 7 kts 97°
2026-05-09 03:59 43.56797 -116.21781 2862 ft 11 kts 126°
2026-05-09 03:59 43.56725 -116.21755 2862 ft 12 kts 174°
2026-05-09 03:59 43.56631 -116.21742 2856 ft 15 kts 174°
2026-05-09 03:59 43.56523 -116.21730 2858 ft 15 kts 173°
2026-05-09 04:00 43.56444 -116.21646 2862 ft 16 kts 115°
2026-05-09 04:00 43.56399 -116.21511 2865 ft 15 kts 115°
2026-05-09 04:00 43.56358 -116.21390 2869 ft 13 kts 115°
2026-05-09 04:00 43.56319 -116.21275 2870 ft 14 kts 115°
2026-05-09 04:01 43.56272 -116.21137 2873 ft 17 kts 115°
2026-05-09 04:01 43.56221 -116.20991 2874 ft 18 kts 115°
2026-05-09 04:01 43.56178 -116.20873 2873 ft 9 kts 129°
2026-05-09 04:01 43.56124 -116.20873 2873 ft 9 kts 204°
2026-05-09 04:02 43.56053 -116.20920 2871 ft 14 kts 207°
2026-05-09 04:02 43.55970 -116.20976 2873 ft 12 kts 206°
2026-05-09 04:02 43.55909 -116.21034 2875 ft 11 kts 255°
2026-05-09 04:02 43.55936 -116.21145 2873 ft 16 kts 296°
2026-05-09 04:03 43.56067 -116.21523 2869 ft 77 kts 295°
2026-05-09 04:03 43.56386 -116.22456 2859 ft 135 kts 295°
2026-05-09 04:03 43.56854 -116.23809 2947 ft 170 kts 296°
2026-05-09 04:03 43.57390 -116.25317 3403 ft 183 kts 296°
2026-05-09 04:04 43.57983 -116.26945 3908 ft 195 kts 298°
2026-05-09 04:04 43.58586 -116.28618 4595 ft 198 kts 296°
2026-05-09 04:04 43.59210 -116.30439 4979 ft 224 kts 296°
2026-05-09 04:04 43.59915 -116.32478 5434 ft 245 kts 296°
2026-05-09 04:05 43.60678 -116.34685 5966 ft 264 kts 294°
2026-05-09 04:05 43.61048 -116.37207 6635 ft 273 kts 266°
2026-05-09 04:05 43.60526 -116.39714 7488 ft 278 kts 241°
2026-05-09 04:05 43.59221 -116.41697 8284 ft 284 kts 214°
2026-05-09 04:06 43.57401 -116.42786 9057 ft 291 kts 191°
2026-05-09 04:06 43.55380 -116.42643 9842 ft 298 kts 162°
2026-05-09 04:06 43.53590 -116.41167 10474 ft 311 kts 135°
2026-05-09 04:06 43.52427 -116.38595 10989 ft 325 kts 108°
2026-05-09 04:07 43.51790 -116.35537 11536 ft 338 kts 106°
2026-05-09 04:07 43.51094 -116.32389 12166 ft 349 kts 107°
2026-05-09 04:07 43.50372 -116.29169 12925 ft 355 kts 107°
2026-05-09 04:07 43.49634 -116.25898 13691 ft 360 kts 107°
2026-05-09 04:08 43.48885 -116.22582 14467 ft 365 kts 107°
2026-05-09 04:08 43.48125 -116.19220 15238 ft 371 kts 107°
2026-05-09 04:08 43.47363 -116.15852 15971 ft 377 kts 107°
2026-05-09 04:08 43.46574 -116.12385 16704 ft 381 kts 107°
2026-05-09 04:09 43.45781 -116.08883 17423 ft 386 kts 107°
2026-05-09 04:09 43.44972 -116.05332 18089 ft 391 kts 107°
2026-05-09 04:09 43.44152 -116.01740 18752 ft 395 kts 107°
2026-05-09 04:09 43.43325 -115.98110 19405 ft 400 kts 107°
2026-05-09 04:10 43.42487 -115.94443 20052 ft 403 kts 107°
2026-05-09 04:10 43.41641 -115.90750 20664 ft 407 kts 108°
2026-05-09 04:10 43.40787 -115.87018 21252 ft 411 kts 108°
2026-05-09 04:10 43.39923 -115.83255 21823 ft 415 kts 108°
2026-05-09 04:11 43.39048 -115.79454 22412 ft 418 kts 108°
2026-05-09 04:11 43.38171 -115.75631 22968 ft 421 kts 108°
2026-05-09 04:11 43.37282 -115.71774 23465 ft 426 kts 108°
2026-05-09 04:11 43.36382 -115.67881 23989 ft 429 kts 108°
2026-05-09 04:12 43.35476 -115.63959 24502 ft 432 kts 108°
2026-05-09 04:12 43.34562 -115.60010 24992 ft 435 kts 108°
2026-05-09 04:12 43.33641 -115.56039 25503 ft 438 kts 109°
2026-05-09 04:12 43.32713 -115.52037 25977 ft 441 kts 109°
2026-05-09 04:13 43.31778 -115.48020 26448 ft 443 kts 109°
2026-05-09 04:13 43.30837 -115.43979 26895 ft 445 kts 109°
2026-05-09 04:13 43.29890 -115.39920 27323 ft 448 kts 109°
2026-05-09 04:13 43.29012 -115.35802 27755 ft 451 kts 106°
2026-05-09 04:14 43.28221 -115.31624 28178 ft 453 kts 106°
2026-05-09 04:14 43.27410 -115.27436 28541 ft 456 kts 107°
2026-05-09 04:14 43.26584 -115.23217 28961 ft 458 kts 107°
2026-05-09 04:14 43.25762 -115.19037 29330 ft 460 kts 107°
2026-05-09 04:15 43.24924 -115.14787 29696 ft 463 kts 107°
2026-05-09 04:15 43.24080 -115.10514 30031 ft 466 kts 108°
2026-05-09 04:15 43.23230 -115.06221 30388 ft 467 kts 107°
2026-05-09 04:15 43.22377 -115.01915 30714 ft 470 kts 108°
2026-05-09 04:16 43.21515 -114.97585 31060 ft 471 kts 108°
2026-05-09 04:16 43.20649 -114.93239 31382 ft 474 kts 108°
2026-05-09 04:16 43.19778 -114.88877 31691 ft 476 kts 108°
2026-05-09 04:16 43.18899 -114.84490 32017 ft 478 kts 108°
2026-05-09 04:17 43.18017 -114.80094 32323 ft 480 kts 108°
2026-05-09 04:17 43.17129 -114.75676 32640 ft 482 kts 108°
2026-05-09 04:17 43.16236 -114.71241 32940 ft 484 kts 108°
2026-05-09 04:17 43.15337 -114.66795 33234 ft 486 kts 108°
2026-05-09 04:18 43.14434 -114.62331 33509 ft 488 kts 108°
2026-05-09 04:18 43.13523 -114.57841 33795 ft 490 kts 108°
2026-05-09 04:18 43.12608 -114.53340 34085 ft 491 kts 108°
2026-05-09 04:18 43.11691 -114.48832 34361 ft 493 kts 108°
2026-05-09 04:19 43.10764 -114.44297 34668 ft 494 kts 108°
2026-05-09 04:19 43.09839 -114.39775 34966 ft 495 kts 108°
2026-05-09 04:19 43.08908 -114.35235 35243 ft 496 kts 108°
2026-05-09 04:19 43.07974 -114.30695 35550 ft 496 kts 108°
2026-05-09 04:20 43.07038 -114.26151 35840 ft 496 kts 108°
2026-05-09 04:20 43.06100 -114.21608 36096 ft 497 kts 108°
2026-05-09 04:20 43.05160 -114.17063 36371 ft 497 kts 108°
2026-05-09 04:20 43.04215 -114.12511 36617 ft 497 kts 108°
2026-05-09 04:21 43.03274 -114.07983 37047 ft 493 kts 108°
2026-05-09 04:21 43.02338 -114.03486 37354 ft 492 kts 108°
2026-05-09 04:21 43.00457 -113.94489 37807 ft 492 kts 108°
2026-05-09 04:22 42.99514 -113.89992 38027 ft 492 kts 108°
2026-05-09 04:22 42.98582 -113.85559 38225 ft 492 kts 108°
2026-05-09 04:22 42.97623 -113.81004 38394 ft 493 kts 108°
2026-05-09 04:22 42.96673 -113.76502 38574 ft 494 kts 108°
2026-05-09 04:23 42.95720 -113.71998 38759 ft 494 kts 108°
2026-05-09 04:23 42.94765 -113.67494 38931 ft 494 kts 108°
2026-05-09 04:23 42.93821 -113.63047 39056 ft 495 kts 108°
2026-05-09 04:24 42.91884 -113.53962 39045 ft 494 kts 108°
2026-05-09 04:24 42.89972 -113.45030 39058 ft 494 kts 108°
2026-05-09 04:25 42.88039 -113.36036 39058 ft 494 kts 108°
2026-05-09 04:25 42.86102 -113.27063 39047 ft 493 kts 108°
2026-05-09 04:26 42.84163 -113.18117 39045 ft 492 kts 108°
2026-05-09 04:26 42.82215 -113.09172 39047 ft 492 kts 108°
2026-05-09 04:27 42.80267 -113.00247 39040 ft 491 kts 108°
2026-05-09 04:27 42.78315 -112.91343 39036 ft 490 kts 109°
2026-05-09 04:28 42.76255 -112.82510 39027 ft 487 kts 115°
2026-05-09 04:28 42.73749 -112.74024 39035 ft 488 kts 114°
2026-05-09 04:29 42.71293 -112.65432 39030 ft 486 kts 114°
2026-05-09 04:29 42.68845 -112.56865 39029 ft 486 kts 114°
2026-05-09 04:30 42.66397 -112.48320 39032 ft 485 kts 114°
2026-05-09 04:30 42.63945 -112.39789 39029 ft 484 kts 114°
2026-05-09 04:31 42.61489 -112.31276 39032 ft 483 kts 114°
2026-05-09 04:31 42.59448 -112.24221 39041 ft 483 kts 114°
2026-05-09 04:32 42.56986 -112.15741 39026 ft 483 kts 114°
2026-05-09 04:32 42.54520 -112.07272 39030 ft 482 kts 114°
2026-05-09 04:33 42.52052 -111.98825 39066 ft 481 kts 114°
2026-05-09 04:33 42.49577 -111.90380 39066 ft 482 kts 114°
2026-05-09 04:34 42.47099 -111.81954 39085 ft 482 kts 114°
2026-05-09 04:34 42.44609 -111.73515 39088 ft 482 kts 114°
2026-05-09 04:35 42.42114 -111.65090 39093 ft 482 kts 114°
2026-05-09 04:35 42.39615 -111.56674 39090 ft 482 kts 114°
2026-05-09 04:36 42.37127 -111.48324 39102 ft 482 kts 114°
2026-05-09 04:36 42.34613 -111.39916 39108 ft 482 kts 114°
2026-05-09 04:37 42.32090 -111.31506 39119 ft 482 kts 114°
2026-05-09 04:37 42.29561 -111.23098 39105 ft 482 kts 114°
2026-05-09 04:38 42.27022 -111.14685 39106 ft 484 kts 114°
2026-05-09 04:38 42.24480 -111.06290 39108 ft 483 kts 114°
2026-05-09 04:39 42.21940 -110.97905 39103 ft 483 kts 114°
2026-05-09 04:39 42.19370 -110.89601 39193 ft 482 kts 113°
2026-05-09 04:40 42.16827 -110.81185 39123 ft 485 kts 114°
2026-05-09 04:40 42.14250 -110.72779 39156 ft 486 kts 114°
2026-05-09 04:41 42.11664 -110.64371 39155 ft 486 kts 114°
2026-05-09 04:41 42.09070 -110.55972 39164 ft 486 kts 114°
2026-05-09 04:42 42.06461 -110.47550 39160 ft 485 kts 113°
2026-05-09 04:42 42.03853 -110.39153 39145 ft 487 kts 114°
2026-05-09 04:43 42.01242 -110.30779 39123 ft 488 kts 114°
2026-05-09 04:43 41.98625 -110.22401 39175 ft 487 kts 113°
2026-05-09 04:44 41.95995 -110.14014 39153 ft 486 kts 113°
2026-05-09 04:44 41.93361 -110.05641 39159 ft 487 kts 114°
2026-05-09 04:45 41.90718 -109.97269 39154 ft 487 kts 114°
2026-05-09 04:45 41.88071 -109.88907 39148 ft 487 kts 114°
2026-05-09 04:46 41.85418 -109.80549 39145 ft 487 kts 114°
2026-05-09 04:46 41.82757 -109.72195 39126 ft 487 kts 114°
2026-05-09 04:47 41.80093 -109.63861 39140 ft 487 kts 113°
2026-05-09 04:47 41.77419 -109.55515 39111 ft 486 kts 114°
2026-05-09 04:48 41.74740 -109.47185 39127 ft 487 kts 114°
2026-05-09 04:48 41.72055 -109.38860 39115 ft 487 kts 113°
2026-05-09 04:49 41.69384 -109.30602 39121 ft 487 kts 113°
2026-05-09 04:49 41.66671 -109.22239 39120 ft 487 kts 113°
2026-05-09 04:50 41.63981 -109.13977 39116 ft 488 kts 113°
2026-05-09 04:50 41.61267 -109.05665 39123 ft 488 kts 113°
2026-05-09 04:51 41.58545 -108.97352 39117 ft 489 kts 113°
2026-05-09 04:51 41.55816 -108.89042 39120 ft 489 kts 113°
2026-05-09 04:52 41.53075 -108.80723 39125 ft 489 kts 112°
2026-05-09 04:52 41.50330 -108.72410 39117 ft 490 kts 112°
2026-05-09 04:53 41.47577 -108.64097 39118 ft 490 kts 112°
2026-05-09 04:53 41.44813 -108.55776 39119 ft 491 kts 112°
2026-05-09 04:54 41.42040 -108.47449 39124 ft 491 kts 112°
2026-05-09 04:54 41.39279 -108.39184 39116 ft 491 kts 112°
2026-05-09 04:55 41.36784 -108.30738 39125 ft 489 kts 106°
2026-05-09 04:55 41.34654 -108.22104 39101 ft 490 kts 106°
2026-05-09 04:56 41.32542 -108.13477 39112 ft 490 kts 106°
2026-05-09 04:56 41.30425 -108.04852 39112 ft 490 kts 106°
2026-05-09 04:57 41.28297 -107.96219 39109 ft 490 kts 105°
2026-05-09 04:57 41.26184 -107.87672 39110 ft 490 kts 105°
2026-05-09 04:58 41.24050 -107.79080 39117 ft 489 kts 105°
2026-05-09 04:58 41.21911 -107.70493 39117 ft 489 kts 105°
2026-05-09 04:59 41.19765 -107.61915 39122 ft 489 kts 105°
2026-05-09 04:59 41.17622 -107.53374 39120 ft 488 kts 105°
2026-05-09 05:00 41.15471 -107.44833 39121 ft 488 kts 105°
2026-05-09 05:00 41.13318 -107.36303 39130 ft 487 kts 105°
2026-05-09 05:01 41.11158 -107.27790 39141 ft 487 kts 105°
2026-05-09 05:01 41.08990 -107.19275 39110 ft 486 kts 105°
2026-05-09 05:02 41.06836 -107.10836 39126 ft 486 kts 105°
2026-05-09 05:02 41.04663 -107.02354 39104 ft 485 kts 105°
2026-05-09 05:03 41.02485 -106.93886 39119 ft 486 kts 105°
2026-05-09 05:03 41.00302 -106.85426 39106 ft 484 kts 105°
2026-05-09 05:04 40.98118 -106.76992 39130 ft 484 kts 105°
2026-05-09 05:04 40.95924 -106.68551 39121 ft 484 kts 105°
2026-05-09 05:05 40.93732 -106.60141 39133 ft 484 kts 105°
2026-05-09 05:05 40.92634 -106.55940 38576 ft 484 kts 105°
2026-05-09 05:05 40.91520 -106.51686 37460 ft 495 kts 105°
2026-05-09 05:05 40.90405 -106.47438 36851 ft 493 kts 106°
2026-05-09 05:06 40.89282 -106.43164 36143 ft 493 kts 106°
2026-05-09 05:06 40.88153 -106.38875 35010 ft 495 kts 106°
2026-05-09 05:06 40.87021 -106.34582 33958 ft 494 kts 106°
2026-05-09 05:06 40.85888 -106.30288 33180 ft 495 kts 106°
2026-05-09 05:07 40.84737 -106.26004 32488 ft 496 kts 110°
2026-05-09 05:07 40.83330 -106.21840 31788 ft 496 kts 112°
2026-05-09 05:07 40.81883 -106.17709 31182 ft 494 kts 113°
2026-05-09 05:07 40.80437 -106.13618 30576 ft 491 kts 113°
2026-05-09 05:08 40.78990 -106.09541 29950 ft 489 kts 113°
2026-05-09 05:08 40.77547 -106.05481 29279 ft 489 kts 114°
2026-05-09 05:08 40.76104 -106.01429 28641 ft 486 kts 114°
2026-05-09 05:08 40.74683 -105.97440 28019 ft 478 kts 114°
2026-05-09 05:09 40.73271 -105.93483 27410 ft 476 kts 114°
2026-05-09 05:09 40.71860 -105.89546 26826 ft 473 kts 114°
2026-05-09 05:09 40.70461 -105.85644 26353 ft 468 kts 114°
2026-05-09 05:09 40.69075 -105.81783 25899 ft 464 kts 114°
2026-05-09 05:10 40.67701 -105.77962 25383 ft 459 kts 115°
2026-05-09 05:10 40.66342 -105.74187 24963 ft 454 kts 115°
2026-05-09 05:10 40.64994 -105.70448 24475 ft 451 kts 115°
2026-05-09 05:10 40.63652 -105.66729 23947 ft 448 kts 115°
2026-05-09 05:11 40.62316 -105.63033 23506 ft 444 kts 115°
2026-05-09 05:11 40.61010 -105.59424 23078 ft 440 kts 115°
2026-05-09 05:11 40.59698 -105.55805 22615 ft 437 kts 115°
2026-05-09 05:11 40.58396 -105.52217 22305 ft 430 kts 115°
2026-05-09 05:12 40.57143 -105.48769 22206 ft 417 kts 115°
2026-05-09 05:12 40.55912 -105.45381 22191 ft 403 kts 116°
2026-05-09 05:12 40.54690 -105.42032 21997 ft 411 kts 115°
2026-05-09 05:12 40.53441 -105.38602 21207 ft 419 kts 115°
2026-05-09 05:13 40.52192 -105.35193 20720 ft 413 kts 115°
2026-05-09 05:13 40.50947 -105.31768 20007 ft 418 kts 115°
2026-05-09 05:13 40.49691 -105.28340 19323 ft 411 kts 115°
2026-05-09 05:13 40.48468 -105.25006 18735 ft 400 kts 115°
2026-05-09 05:14 40.47270 -105.21735 18091 ft 395 kts 116°
2026-05-09 05:14 40.46094 -105.18508 17455 ft 389 kts 113°
2026-05-09 05:14 40.45242 -105.15163 16774 ft 384 kts 105°
2026-05-09 05:14 40.44465 -105.11840 16181 ft 377 kts 107°
2026-05-09 05:15 40.43676 -105.08588 15616 ft 371 kts 107°
2026-05-09 05:15 40.42897 -105.05398 15128 ft 361 kts 106°
2026-05-09 05:15 40.42173 -105.02329 14906 ft 345 kts 107°
2026-05-09 05:15 40.41470 -104.99382 14663 ft 331 kts 107°
2026-05-09 05:16 40.40799 -104.96572 14466 ft 315 kts 107°
2026-05-09 05:16 40.40156 -104.93889 14278 ft 301 kts 107°
2026-05-09 05:16 40.39539 -104.91319 14119 ft 291 kts 107°
2026-05-09 05:16 40.38936 -104.88798 13986 ft 289 kts 106°
2026-05-09 05:17 40.38335 -104.86277 13719 ft 290 kts 107°
2026-05-09 05:17 40.37733 -104.83749 13421 ft 291 kts 107°
2026-05-09 05:17 40.37128 -104.81219 13115 ft 289 kts 107°
2026-05-09 05:17 40.36533 -104.78728 12961 ft 283 kts 107°
2026-05-09 05:18 40.35928 -104.76274 12920 ft 283 kts 112°
2026-05-09 05:18 40.34852 -104.74149 12609 ft 282 kts 140°
2026-05-09 05:18 40.33304 -104.72570 12193 ft 283 kts 146°
2026-05-09 05:18 40.31735 -104.71016 11781 ft 281 kts 146°
2026-05-09 05:19 40.30186 -104.69495 11502 ft 274 kts 147°
2026-05-09 05:19 40.28512 -104.68458 11273 ft 262 kts 174°
2026-05-09 05:19 40.26722 -104.68349 11012 ft 256 kts 183°
2026-05-09 05:19 40.24953 -104.68332 10758 ft 253 kts 182°
2026-05-09 05:20 40.23791 -104.68327 10556 ft 253 kts 182°
2026-05-09 05:20 40.22029 -104.68323 10219 ft 253 kts 182°
2026-05-09 05:20 40.20275 -104.68331 10004 ft 248 kts 181°
2026-05-09 05:20 40.18587 -104.68346 10009 ft 242 kts 181°
2026-05-09 05:21 40.16884 -104.68365 9986 ft 248 kts 181°
2026-05-09 05:21 40.15146 -104.68384 9857 ft 250 kts 181°
2026-05-09 05:21 40.13403 -104.68404 9594 ft 252 kts 181°
2026-05-09 05:21 40.11651 -104.68424 9312 ft 251 kts 181°
2026-05-09 05:22 40.09913 -104.68444 9045 ft 249 kts 181°
2026-05-09 05:22 40.08189 -104.68464 8760 ft 247 kts 181°
2026-05-09 05:22 40.06477 -104.68484 8442 ft 246 kts 180°
2026-05-09 05:22 40.04792 -104.68504 8146 ft 238 kts 180°
2026-05-09 05:23 40.03178 -104.68523 7993 ft 225 kts 180°
2026-05-09 05:23 40.01647 -104.68540 7737 ft 218 kts 179°
2026-05-09 05:23 40.00144 -104.68559 7432 ft 214 kts 179°
2026-05-09 05:23 39.98686 -104.68577 7168 ft 200 kts 179°
2026-05-09 05:24 39.97374 -104.68591 6890 ft 178 kts 179°
2026-05-09 05:24 39.96217 -104.68606 6662 ft 158 kts 179°
2026-05-09 05:24 39.95158 -104.68617 6460 ft 149 kts 179°
2026-05-09 05:24 39.94133 -104.68629 6259 ft 146 kts 179°
2026-05-09 05:25 39.93115 -104.68641 6061 ft 146 kts 179°
2026-05-09 05:25 39.92098 -104.68651 5876 ft 146 kts 179°
2026-05-09 05:25 39.90062 -104.68680 5463 ft 146 kts 179°
2026-05-09 05:26 39.89064 -104.68685 5363 ft 133 kts 180°
2026-05-09 05:26 39.88344 -104.68690 5362 ft 78 kts 180°
2026-05-09 05:26 39.87861 -104.68684 5364 ft 41 kts 172°
2026-05-09 05:26 39.87668 -104.68592 5362 ft 19 kts 150°
2026-05-09 05:27 39.87554 -104.68512 5361 ft 19 kts 159°
2026-05-09 05:27 39.87423 -104.68493 5364 ft 19 kts 180°
2026-05-09 05:27 39.87282 -104.68495 5364 ft 22 kts 180°
2026-05-09 05:27 39.87108 -104.68496 5364 ft 28 kts 180°
2026-05-09 05:28 39.86902 -104.68498 5363 ft 30 kts 181°
2026-05-09 05:28 39.86697 -104.68501 5361 ft 30 kts 180°
2026-05-09 05:28 39.86505 -104.68502 5363 ft 27 kts 180°
2026-05-09 05:28 39.86317 -104.68505 5367 ft 27 kts 181°
2026-05-09 05:29 39.86137 -104.68508 5368 ft 25 kts 180°
2026-05-09 05:29 39.85964 -104.68509 5369 ft 25 kts 181°
2026-05-09 05:29 39.85789 -104.68512 5372 ft 25 kts 180°
2026-05-09 05:29 39.85611 -104.68513 5373 ft 25 kts 179°
2026-05-09 05:30 39.85440 -104.68514 5380 ft 24 kts 180°
2026-05-09 05:30 39.85328 -104.68505 5381 ft 10 kts 150°
2026-05-09 05:30 39.85309 -104.68422 5382 ft 11 kts 90°
2026-05-09 05:30 39.85309 -104.68297 5385 ft 17 kts 91°
2026-05-09 05:31 39.85291 -104.68142 5386 ft 14 kts 108°
2026-05-09 05:31 39.85281 -104.68032 5386 ft 8 kts 91°
2026-05-09 05:31 39.85308 -104.67995 5386 ft 4 kts
2026-05-09 05:31 39.85333 -104.67994 5386 ft 3 kts
2026-05-09 05:32 39.85340 -104.67994 5386 ft 0 kts